GEFSMW_con_probscp_114.txt.gz
Probability
27 25 25 27 29 30 32 32 32 32 32 30 28 24 17 12 8 6 4 3 3 3 3 3 1 0 0 0 0 0 0 0 0 0 0 0 0 0 0 0 0 0 0
24 23 23 25 28 28 29 30 30 29 28 27 26 22 18 12 7 4 4 3 3 3 3 3 2 0 0 0 0 0 0 0 0 0 0 0 0 0 0 0 0 0 0
19 20 21 22 24 24 23 24 24 23 23 23 22 20 16 11 6 3 3 3 3 3 3 3 1 0 0 0 0 0 0 0 0 0 0 0 0 0 0 0 0 0 0
14 15 18 19 19 20 19 19 18 18 19 18 18 17 14 10 7 4 3 3 3 3 3 3 1 0 0 0 0 0 0 0 0 0 0 0 0 0 0 0 0 0 0
8 10 12 14 17 18 17 16 14 14 14 13 13 13 11 8 6 5 3 3 3 3 3 3 2 0 0 0 0 0 0 0 0 0 0 0 0 0 0 0 0 0 0
4 5 7 10 14 15 13 12 10 9 10 9 9 9 7 5 4 4 2 1 2 2 2 2 1 0 0 0 0 0 0 0 0 0 0 0 0 0 0 0 0 0 0
2 3 4 7 11 11 9 8 7 8 9 8 6 5 5 4 3 3 1 0 1 1 1 1 0 0 0 0 0 0 0 0 0 0 0 0 0 0 0 0 0 0 0
2 3 4 6 8 8 7 7 7 8 10 9 6 4 3 3 3 2 1 0 0 0 0 0 0 0 0 0 0 0 0 0 0 0 0 0 0 0 0 0 0 0 0
3 3 4 5 6 6 7 8 8 9 10 10 7 4 3 3 3 2 1 0 0 0 0 0 0 0 0 0 0 0 0 0 0 0 0 0 0 0 0 0 0 0 0
3 2 2 4 4 6 8 10 10 9 8 8 7 5 3 3 2 1 0 0 0 0 0 0 0 0 0 0 0 0 0 0 0 0 0 0 0 0 0 0 0 0 0
3 2 2 3 4 6 9 10 9 8 7 7 6 6 4 3 2 0 0 0 0 0 0 0 0 0 0 0 0 0 0 0 0 0 0 0 0 0 0 0 0 0 0
3 3 3 4 6 7 9 9 7 7 6 6 6 6 5 4 2 1 0 0 0 0 0 0 0 0 0 0 0 0 0 0 0 0 1 1 1 1 1 1 1 1 1
4 4 5 6 7 9 10 10 9 8 7 7 7 7 7 6 4 3 2 1 1 0 0 0 0 0 0 0 0 1 1 1 1 1 2 2 2 2 2 2 2 2 2
6 7 7 6 8 10 12 14 13 11 10 9 9 9 9 8 6 5 5 3 2 1 0 0 0 0 0 0 1 2 2 2 2 2 2 2 2 2 2 2 2 2 2
7 8 7 7 8 10 12 13 14 14 14 12 10 10 10 9 7 6 6 6 3 1 1 0 0 1 1 1 1 2 2 1 1 1 1 1 1 1 1 1 1 1 1
6 7 7 8 9 10 10 11 13 16 16 14 12 11 11 10 9 8 9 8 4 2 2 1 0 1 1 1 1 1 1 0 0 0 0 0 0 0 0 0 0 0 0
5 6 7 7 7 7 8 10 15 18 18 17 15 14 13 11 11 11 11 9 6 4 2 1 0 1 1 0 0 0 0 0 0 0 0 0 0 0 0 0 0 0 0
7 7 6 5 4 4 4 8 15 20 21 20 18 15 13 13 12 12 11 9 8 6 3 1 0 0 0 0 0 0 0 0 0 0 0 0 0 0 0 0 0 0 0
8 7 5 3 3 2 3 7 13 19 22 22 20 16 14 13 12 11 10 8 8 8 5 2 0 0 0 0 0 0 0 0 0 0 0 0 0 0 0 0 0 0 0
6 5 3 2 2 2 4 8 12 15 17 18 18 17 15 13 10 9 9 7 5 5 4 2 0 0 0 0 0 0 0 0 0 0 0 0 0 0 0 0 0 0 0
4 3 3 2 1 1 3 7 10 9 9 9 10 12 12 9 7 6 6 5 3 2 2 1 0 0 0 0 0 0 0 0 0 0 0 0 0 0 0 0 0 0 0
2 2 2 2 1 1 3 5 6 5 3 3 4 5 5 4 3 3 2 2 1 0 0 0 0 0 0 0 0 0 0 0 0 0 0 0 0 0 0 0 0 0 0
1 1 1 1 1 2 3 3 4 3 2 2 2 2 2 1 1 1 0 0 0 0 0 0 0 0 0 0 0 0 0 0 0 0 0 0 0 0 0 0 0 0 0
1 1 0 0 1 3 3 2 2 1 1 1 1 1 1 0 0 0 0 0 0 0 0 0 0 0 0 0 0 0 0 0 0 0 0 0 0 0 0 0 0 0 0
2 1 0 0 1 2 2 1 0 0 0 0 0 0 0 0 0 0 0 0 0 0 0 0 0 0 0 0 0 0 0 0 0 0 0 0 0 0 0 0 0 0 0
1 1 0 0 1 1 1 0 0 0 0 0 0 0 0 0 0 0 0 0 0 0 0 0 0 0 0 0 0 0 0 0 0 0 0 0 0 0 0 0 0 0 0

GEFSMW_con_probscp_120.txt.gz
Probability
13 13 14 14 13 16 18 18 20 21 18 12 6 5 6 5 2 0 0 1 0 0 0 0 0 0 0 0 0 0 0 0 0 0 0 0 0 0 0 0 0 0 0
13 14 14 13 13 15 16 16 16 16 14 10 8 6 6 5 2 0 1 1 1 1 0 0 0 0 0 0 0 0 0 0 0 0 0 0 0 0 0 0 0 0 0
10 11 10 10 11 13 14 14 13 12 10 9 9 9 7 5 2 0 1 2 3 2 1 0 0 0 0 0 0 0 0 0 0 0 0 0 0 0 0 0 0 0 0
5 5 5 6 8 11 12 12 12 11 10 10 11 11 9 6 3 1 1 2 3 3 2 1 0 0 0 0 0 0 0 0 0 0 0 0 0 0 0 0 0 0 0
1 2 3 4 6 8 9 11 11 10 9 10 11 11 9 7 4 2 1 1 2 2 2 1 0 0 0 0 0 0 0 0 0 0 0 0 0 0 0 0 0 0 0
1 1 3 4 5 7 8 9 10 9 9 10 10 9 8 6 5 2 1 2 1 1 1 0 0 0 0 0 0 0 0 0 0 0 0 0 0 0 0 0 0 0 0
1 1 3 4 6 7 7 8 8 9 9 10 9 8 6 5 4 3 3 2 1 0 0 0 0 0 0 0 0 0 0 0 0 0 0 0 0 0 0 0 0 0 0
1 0 1 3 4 6 8 9 9 8 8 9 9 8 5 4 4 3 3 2 1 0 0 0 0 0 0 0 0 0 0 0 0 0 0 0 0 0 0 0 0 0 0
0 0 0 1 2 4 7 9 10 9 8 7 8 7 6 4 4 3 1 1 0 0 0 0 0 0 0 0 0 0 0 0 0 0 0 0 0 0 0 0 0 0 0
0 0 0 0 1 2 5 9 11 10 8 7 7 7 7 7 5 3 1 0 0 0 0 0 0 0 0 0 0 0 0 0 0 0 0 0 0 0 0 0 0 0 0
0 0 0 0 0 1 4 8 10 9 8 7 7 7 8 7 5 2 1 0 0 0 0 0 0 0 0 0 0 0 0 0 0 0 0 0 0 0 0 0 0 0 0
0 0 0 0 0 1 3 6 7 8 8 8 8 8 6 4 3 1 0 0 0 0 0 0 0 0 0 0 0 0 0 0 0 0 0 0 0 0 0 0 0 0 0
0 0 0 0 0 0 2 4 4 6 8 9 8 7 4 3 2 1 1 0 0 0 0 0 0 0 0 0 0 0 0 0 0 0 0 0 0 0 0 0 0 0 0
0 0 0 0 0 1 2 3 3 5 8 9 8 6 4 3 3 3 2 1 0 0 0 0 0 0 0 0 0 0 0 0 0 0 0 0 0 0 0 0 0 0 0
0 0 0 0 1 1 2 2 3 4 7 8 6 5 4 4 4 4 4 3 1 0 0 0 0 0 0 0 0 0 0 0 0 0 0 0 0 0 0 0 0 0 0
0 0 0 1 1 1 1 1 2 4 6 6 5 4 4 5 6 6 6 5 2 0 0 0 0 0 0 0 0 0 0 0 0 0 0 0 0 0 0 0 0 0 0
1 1 0 1 2 2 3 2 2 4 5 5 4 4 5 6 6 6 6 6 4 1 0 0 0 0 0 0 0 0 0 0 0 0 0 0 0 0 0 0 0 0 0
3 2 1 1 2 3 5 5 5 5 5 4 4 4 5 6 6 6 6 5 3 1 0 0 0 0 0 0 0 0 0 0 0 0 0 0 0 0 0 0 0 0 0
4 3 2 1 1 2 6 7 6 4 2 2 2 3 4 5 4 4 4 4 2 1 0 0 0 0 0 0 0 0 0 0 0 0 0 0 0 0 0 0 0 0 0
2 1 1 0 0 1 4 6 4 2 1 1 1 2 2 2 2 2 2 2 1 0 0 0 0 0 0 0 0 0 0 0 0 0 0 0 0 0 0 0 0 0 0
1 0 0 0 0 0 2 3 2 1 1 2 2 2 1 0 0 1 1 0 0 0 0 0 0 0 0 0 0 0 0 0 0 0 0 0 0 0 0 0 0 0 0
0 0 0 0 0 0 1 1 1 0 1 1 1 1 0 0 0 0 0 0 0 0 0 0 0 0 0 0 0 0 0 0 0 0 0 0 0 0 0 0 0 0 0
0 0 0 0 0 0 0 0 0 0 0 0 0 0 0 0 0 0 0 0 0 0 0 0 0 0 0 0 0 0 0 0 0 0 0 0 0 0 0 0 0 0 0
0 0 0 0 0 0 0 0 0 0 0 0 0 0 0 0 0 0 0 0 0 0 0 0 0 0 0 0 0 0 0 0 0 0 0 0 0 0 0 0 0 0 0
0 0 0 0 0 0 0 0 0 0 0 0 0 0 0 0 0 0 0 0 0 0 0 0 0 0 0 0 0 0 0 0 0 0 0 0 0 0 0 0 0 0 0
0 0 0 0 0 0 0 0 0 0 0 0 0 0 0 0 0 0 0 0 0 0 0 0 0 0 0 0 0 0 0 0 0 0 0 0 0 0 0 0 0 0 0

GEFSMW_con_probscp_126.txt.gz
Probability
22 24 27 29 30 31 30 27 25 26 31 39 44 43 35 25 21 22 22 17 14 11 9 7 6 6 5 3 1 0 0 0 0 0 0 0 0 0 0 0 0 0 0
24 26 28 28 26 27 27 25 25 26 30 38 43 41 35 26 22 22 20 17 14 12 8 7 6 6 5 3 2 1 0 0 0 0 0 0 0 0 0 0 0 0 0
20 22 24 23 20 20 24 25 27 29 29 32 34 34 31 26 23 21 19 17 16 12 9 7 6 6 4 3 3 2 1 1 0 0 0 0 0 0 0 0 0 0 0
13 15 18 17 13 13 18 22 25 27 28 26 25 25 25 25 24 22 21 19 17 13 9 7 6 6 4 3 3 3 3 2 1 0 0 0 0 0 0 0 0 0 0
9 11 12 11 9 8 11 14 16 19 25 25 22 21 21 23 24 23 21 18 16 12 9 7 7 6 4 3 3 3 3 3 1 0 0 0 0 0 0 0 0 0 0
8 9 9 7 5 5 6 8 9 13 19 22 20 18 17 18 21 20 18 17 15 13 11 9 8 7 5 4 3 3 3 3 2 1 0 0 0 0 0 0 0 0 0
10 9 7 5 4 4 4 5 9 13 17 17 15 14 14 15 18 18 17 16 15 14 13 11 10 8 6 5 4 4 3 3 3 2 1 1 0 0 0 0 0 0 0
11 10 6 5 6 6 5 6 9 12 15 15 14 14 15 17 18 17 15 14 13 12 13 12 10 7 6 6 6 5 4 3 3 3 3 2 1 0 0 0 0 0 0
9 8 5 4 7 7 7 8 10 10 12 14 15 16 18 18 18 16 14 13 12 11 11 11 8 5 4 5 6 4 3 3 3 3 3 2 1 0 0 0 0 0 0
5 4 3 4 6 6 8 10 9 8 8 10 13 15 17 18 17 15 15 14 13 12 11 9 6 4 3 4 5 4 3 3 3 3 3 3 1 0 0 0 0 0 0
1 1 2 4 5 5 6 8 8 6 5 7 11 13 16 19 17 15 15 14 13 12 11 9 6 4 3 4 4 3 2 2 3 3 3 3 2 1 0 0 0 1 1
0 1 3 5 6 5 5 6 6 6 5 7 11 14 17 18 17 16 16 15 14 13 12 10 7 5 4 4 4 4 3 2 3 3 3 2 2 1 1 1 1 1 2
2 3 5 6 7 6 5 5 5 5 6 7 9 12 15 16 16 16 16 15 15 14 12 11 9 7 5 5 6 7 7 5 4 4 2 1 1 1 1 1 1 1 2
5 7 9 9 8 7 7 7 7 7 7 6 7 10 13 15 16 16 16 15 15 15 14 12 11 10 8 7 9 10 11 10 7 6 4 2 1 2 2 2 3 3 3
7 11 13 13 12 10 9 10 11 13 13 11 11 12 14 16 18 19 19 20 19 19 19 18 18 17 13 9 9 11 11 10 9 8 7 5 3 3 2 2 3 3 4
12 15 17 17 17 16 13 13 16 21 23 21 19 18 18 20 22 23 25 26 25 24 25 26 25 20 12 6 5 7 8 9 10 11 10 7 4 3 2 1 1 2 2
17 19 19 19 20 20 17 15 18 24 27 26 25 24 23 23 23 23 26 29 29 29 31 31 28 21 11 3 1 2 5 9 11 12 12 8 4 3 2 1 0 0 1
19 21 20 20 21 20 17 16 18 22 24 24 23 24 25 24 22 22 25 30 34 34 34 32 31 26 15 4 0 1 4 7 10 12 12 10 5 3 3 2 2 2 2
22 22 22 22 22 22 21 19 19 20 20 20 19 20 21 20 20 23 27 33 37 38 36 33 33 30 19 6 0 1 3 6 8 10 10 9 4 2 2 2 4 6 7
23 23 23 23 24 26 26 24 22 20 20 19 18 18 18 17 19 23 29 33 35 34 33 31 29 26 16 5 0 1 3 5 8 9 8 5 2 1 0 1 5 9 11
19 21 23 24 25 27 26 24 21 19 18 18 17 17 18 17 17 21 26 28 27 25 24 23 21 15 7 2 0 1 2 4 6 6 6 5 1 0 0 1 3 7 9
14 17 21 23 24 25 24 22 20 18 16 16 17 16 16 15 14 16 20 20 18 15 13 13 11 7 3 1 0 0 1 2 2 3 3 3 1 0 0 0 1 3 3
16 17 19 20 20 19 20 20 19 16 14 15 15 13 11 10 11 12 14 12 10 8 6 5 5 5 5 3 1 0 0 0 0 0 1 1 0 0 0 0 0 0 0
17 16 17 16 14 12 12 13 14 13 13 13 10 7 6 7 9 9 8 6 5 4 3 3 3 4 6 4 1 0 0 0 0 0 0 0 0 0 0 0 0 0 0
9 10 10 10 8 6 6 8 10 11 12 11 7 4 3 5 6 4 3 2 2 2 2 2 2 3 3 3 1 0 0 0 0 0 0 0 0 0 0 0 0 0 0
3 3 4 4 3 4 5 7 10 11 12 11 8 4 2 3 4 2 1 0 1 1 1 1 1 1 1 1 0 0 0 0 0 0 0 0 0 0 0 0 0 0 0

GEFSMW_con_probscp_132.txt.gz
Probability
73 72 69 64 63 66 68 65 61 58 55 51 47 45 47 47 44 38 33 28 24 21 22 23 20 17 15 13 11 7 3 1 0 0 0 0 0 0 0 0 0 0 0
70 70 67 63 63 65 65 62 59 55 51 47 43 41 42 43 41 36 30 24 20 19 20 22 20 18 16 13 11 8 5 2 0 0 0 0 0 0 0 0 0 0 0
65 66 64 61 62 62 62 59 54 49 44 40 37 34 35 36 35 33 28 23 19 18 21 22 20 17 15 12 11 9 6 4 2 2 1 0 0 0 0 0 0 0 0
57 60 61 60 60 59 56 52 47 42 36 33 32 29 29 31 33 33 31 26 21 20 22 24 22 18 14 11 10 9 7 6 5 3 2 1 1 0 0 0 0 0 0
51 55 58 56 55 52 47 43 39 34 31 29 27 26 26 28 31 33 33 28 23 21 22 24 23 19 14 12 10 9 9 7 6 4 3 3 2 1 0 0 0 0 0
48 52 54 52 49 43 39 37 35 31 28 26 22 21 23 24 26 28 29 27 25 20 17 19 22 20 17 14 11 10 9 8 6 4 3 3 2 1 1 1 0 0 0
41 46 50 47 41 35 32 33 34 32 28 22 16 14 16 19 21 23 25 24 21 16 14 18 21 21 20 17 12 10 9 8 6 4 3 3 2 1 2 2 1 1 0
31 38 44 40 32 26 24 28 31 30 26 19 12 9 11 16 19 21 21 20 16 14 17 22 23 22 20 16 13 11 10 8 6 4 3 3 3 3 3 3 3 2 1
23 30 35 31 25 21 20 23 26 27 24 19 13 10 12 16 19 20 19 18 16 16 22 25 23 21 19 16 14 11 9 9 6 4 3 3 3 3 3 3 3 3 2
21 25 26 25 23 21 19 21 23 25 24 20 16 15 17 20 21 22 20 19 20 23 26 25 21 19 19 18 15 11 9 8 7 5 4 3 3 3 3 3 4 4 4
20 21 20 20 21 20 18 18 19 20 20 18 16 16 19 22 23 24 23 23 26 29 27 23 20 18 17 17 14 12 10 7 6 6 6 5 5 4 4 4 5 6 6
17 17 17 17 18 18 17 15 14 14 14 13 13 14 16 19 21 23 23 24 27 30 26 20 17 15 14 14 14 14 12 8 7 9 12 11 9 8 8 7 7 7 7
19 19 20 22 21 20 18 15 13 12 12 11 11 13 14 16 18 21 23 24 25 26 23 18 15 12 10 11 15 16 13 10 11 15 18 17 16 17 16 13 10 7 5
25 25 29 33 31 26 23 20 18 17 16 15 15 16 17 18 19 21 23 23 23 23 22 20 17 15 12 12 16 18 16 14 17 21 22 20 19 21 20 17 13 8 5
30 33 38 42 39 31 27 25 23 22 22 22 21 21 22 22 21 20 21 22 22 23 24 23 22 19 15 12 15 19 20 21 24 26 25 20 15 15 14 13 11 9 7
35 41 48 51 46 36 31 30 28 26 26 26 24 23 23 22 20 19 20 23 25 27 29 29 26 23 15 8 9 16 24 29 32 34 31 20 11 8 7 5 4 5 5
44 51 56 56 51 42 37 35 32 28 27 26 25 23 23 22 22 22 24 28 31 32 33 33 32 27 17 7 3 8 20 31 37 39 36 26 14 10 9 7 3 2 2
55 57 58 56 51 47 43 39 32 28 26 27 26 25 25 25 26 28 31 33 34 34 34 34 34 29 19 7 1 2 11 22 30 34 35 31 22 15 12 9 5 3 2
60 59 57 55 53 49 46 40 33 27 26 28 28 27 28 28 28 30 33 35 36 35 33 31 31 27 18 7 1 1 6 12 18 21 23 23 18 11 6 5 4 3 2
58 57 57 58 57 53 49 44 36 29 28 29 29 29 30 30 29 30 33 35 36 34 30 27 26 24 16 6 1 1 3 7 11 13 12 10 6 3 1 0 1 1 1
54 55 57 60 60 57 53 47 39 31 29 30 30 30 30 29 29 30 31 32 31 28 25 23 22 20 14 6 1 0 1 4 7 8 8 5 1 0 0 0 0 0 1
49 50 53 56 56 55 52 47 39 33 32 32 31 30 28 26 26 27 26 25 24 21 18 17 16 15 11 5 0 0 0 1 3 5 5 3 1 0 0 0 0 0 0
39 41 43 45 47 48 45 39 35 33 33 33 31 29 26 23 22 23 21 18 16 14 12 11 10 10 8 4 1 0 0 0 1 1 1 1 0 0 0 0 0 0 0
26 29 31 31 32 33 32 30 28 28 28 28 28 25 21 19 17 15 13 10 8 8 9 9 8 7 5 3 1 0 0 0 0 0 0 0 0 0 0 0 0 0 0
19 20 19 18 18 18 18 19 19 19 20 21 20 17 15 13 10 7 5 4 3 3 5 5 5 4 3 1 0 0 0 0 0 0 0 0 0 0 0 0 0 0 0
16 15 13 11 10 10 11 13 14 15 16 16 14 12 10 9 7 4 2 2 1 1 1 2 1 1 1 0 0 0 0 0 0 0 0 0 0 0 0 0 0 0 0

GEFSMW_con_probscp_138.txt.gz
Probability
43 43 45 48 48 48 48 48 46 40 31 24 21 22 21 18 14 13 12 9 7 8 7 6 4 4 3 1 0 0 0 0 0 0 0 0 0 0 0 0 0 0 0
44 44 47 50 51 50 49 47 43 36 28 21 17 17 17 15 11 10 10 9 6 6 5 4 4 4 3 2 1 0 0 0 0 0 0 0 0 0 0 0 0 0 0
42 44 47 50 51 50 48 45 39 32 23 17 14 13 12 11 8 8 8 7 5 4 3 3 4 3 3 2 1 0 0 0 0 0 0 0 0 0 0 0 0 0 0
41 43 44 45 47 47 44 42 36 28 21 16 14 13 10 8 7 7 7 6 4 4 4 3 3 3 3 2 1 0 0 0 0 0 0 0 0 0 0 0 0 0 0
40 41 40 40 42 42 40 39 34 26 20 16 14 11 8 6 6 7 6 4 4 5 5 4 4 2 1 1 0 0 0 0 0 0 0 0 0 0 0 0 0 0 0
34 34 34 35 36 37 36 35 30 24 19 16 14 10 6 4 5 6 6 3 3 4 5 4 3 1 0 0 0 1 1 0 0 0 0 0 0 0 0 0 0 0 0
23 24 26 29 29 29 31 30 26 22 18 15 12 8 5 3 3 5 6 5 3 4 4 3 2 1 0 0 1 2 2 1 0 0 0 0 0 0 0 0 0 0 0
15 16 21 24 22 23 26 25 21 18 16 13 10 7 5 3 2 4 5 6 5 4 4 3 2 2 1 1 1 3 3 2 1 0 0 0 0 0 0 0 0 0 0
11 12 16 18 17 18 20 18 15 13 13 12 10 9 7 5 3 3 3 4 4 5 5 5 4 4 4 3 3 3 3 3 2 1 0 0 0 0 0 0 0 0 0
8 8 9 10 11 12 12 11 12 12 10 10 10 10 10 8 6 4 3 3 4 5 6 6 6 6 6 5 3 3 3 3 3 2 1 0 0 0 0 0 0 0 0
7 6 5 6 7 8 8 9 12 14 12 10 10 10 10 10 9 7 4 4 4 6 6 6 6 7 6 5 3 2 2 3 3 3 2 1 0 0 0 0 0 0 0
6 5 5 6 8 9 9 10 13 14 12 11 10 10 10 11 11 9 7 5 6 6 7 7 7 6 6 4 3 1 1 2 3 3 2 1 0 0 0 0 0 0 0
5 5 6 8 11 12 11 10 11 12 11 10 10 10 10 11 11 10 9 8 7 7 8 8 7 7 7 6 4 3 1 1 1 2 1 0 0 0 0 0 0 0 0
5 6 7 10 12 12 9 8 9 10 10 10 10 10 11 11 11 10 9 8 6 6 6 7 7 8 9 8 5 3 2 0 0 1 1 0 0 0 0 0 0 0 0
9 9 10 11 11 9 7 7 8 9 10 10 11 11 12 12 11 9 8 7 5 4 4 5 6 7 7 6 4 2 1 0 0 1 1 0 0 0 0 0 0 0 0
16 14 13 12 11 9 8 8 8 9 10 10 12 12 11 11 10 9 8 6 5 4 3 3 5 5 4 3 2 0 0 0 0 1 1 0 0 0 0 0 0 0 0
20 19 17 15 12 10 9 9 10 10 11 11 12 12 10 10 10 9 9 7 6 5 3 2 3 3 2 1 0 0 0 0 0 0 0 0 0 0 0 0 0 0 0
18 19 19 18 15 13 11 10 10 11 11 12 12 12 11 10 10 10 9 8 6 4 3 2 2 1 1 0 0 0 0 0 0 0 0 0 0 0 0 0 0 0 0
13 15 19 21 19 16 13 10 9 10 12 13 12 12 11 11 10 9 8 8 6 3 2 1 1 0 0 0 0 0 0 0 0 0 0 0 0 0 0 0 0 0 0
10 12 17 21 20 17 15 12 10 10 10 11 10 10 11 11 9 7 7 6 4 1 1 0 0 0 0 0 0 0 0 0 0 0 0 0 0 0 0 0 0 0 0
9 10 13 16 16 15 15 13 10 8 7 7 6 7 7 8 7 6 5 4 2 1 0 0 0 0 0 0 0 0 0 0 0 0 0 0 0 0 0 0 0 0 0
10 10 11 11 10 10 10 9 7 5 4 4 4 4 4 4 5 5 4 3 2 1 1 0 0 0 0 0 0 0 0 0 0 0 0 0 0 0 0 0 0 0 0
10 10 8 7 5 4 4 3 3 3 3 3 3 3 3 3 3 4 3 3 2 2 1 0 0 0 0 0 0 0 0 0 0 0 0 0 0 0 0 0 0 0 0
6 5 3 2 1 0 0 1 1 1 2 2 2 2 2 2 2 2 2 2 1 1 0 0 0 0 0 0 0 0 0 0 0 0 0 0 0 0 0 0 0 0 0
1 1 0 0 0 0 0 0 0 0 1 1 1 1 1 1 1 1 1 1 0 0 0 0 0 0 0 0 0 0 0 0 0 0 0 0 0 0 0 0 0 0 0
0 0 0 0 0 0 0 0 0 0 0 0 0 0 0 0 0 0 0 0 0 0 0 0 0 0 0 0 0 0 0 0 0 0 0 0 0 0 0 0 0 0 0

GEFSMW_con_probscp_144.txt.gz
Probability
21 24 26 26 27 27 24 18 13 13 17 18 13 7 6 6 6 5 4 2 1 0 0 0 0 0 0 0 0 0 0 0 0 0 0 0 0 0 0 0 0 0 0
21 24 27 29 31 31 27 21 17 17 17 16 12 8 6 6 6 5 3 1 0 0 0 0 0 0 0 1 1 0 0 0 0 0 0 0 0 0 0 0 0 0 0
18 23 29 31 32 32 29 24 21 19 17 14 10 8 6 6 5 4 3 1 0 0 0 0 0 0 0 1 2 1 0 0 0 0 0 0 0 0 0 0 0 0 0
17 21 28 29 28 28 27 23 21 18 14 11 9 7 6 5 5 4 3 1 0 0 0 1 1 0 0 1 1 1 0 0 0 0 0 0 0 0 0 0 0 0 0
18 21 24 25 24 23 21 18 17 15 10 7 6 6 5 5 4 3 2 1 0 0 0 1 1 0 0 0 0 0 0 0 0 0 0 0 0 0 0 0 0 0 0
17 19 19 19 20 19 16 14 13 12 8 4 2 3 3 3 3 2 1 0 0 0 0 1 1 0 0 0 0 0 0 0 0 0 0 0 0 0 0 0 0 0 0
12 14 13 12 14 16 16 15 13 11 7 3 0 1 1 1 2 1 1 0 0 0 0 0 0 0 0 0 0 0 0 0 0 0 0 0 0 0 0 0 0 0 0
6 7 7 7 9 13 15 16 14 11 7 3 2 2 2 1 1 1 0 0 0 0 0 0 0 0 0 0 0 0 1 1 1 1 1 0 0 0 0 0 0 0 0
2 2 3 3 5 8 11 13 13 10 7 4 4 5 4 3 2 2 1 1 0 0 0 1 1 1 1 1 0 1 2 2 2 2 2 1 1 1 0 0 0 0 0
0 0 1 2 3 4 5 8 8 7 5 4 5 6 6 4 3 3 3 2 2 2 2 2 3 3 3 3 1 1 2 2 2 2 2 2 2 2 1 0 0 0 0
0 0 0 2 3 2 2 3 4 3 2 2 3 5 5 5 4 3 3 3 3 3 3 3 4 5 6 5 3 2 1 1 1 1 1 2 3 3 1 0 0 0 0
0 0 0 1 2 2 1 1 1 1 1 0 1 2 3 4 3 3 4 4 4 4 4 4 5 6 7 7 5 3 2 1 1 0 0 1 2 2 2 1 0 0 0
0 0 1 1 1 1 1 0 0 1 1 1 0 0 1 1 2 3 5 5 5 5 5 4 5 7 8 8 7 5 3 3 2 1 0 0 1 1 1 1 0 0 0
1 1 2 2 1 1 0 0 0 1 2 2 1 0 0 0 1 3 5 5 5 6 5 4 5 6 7 8 8 7 4 3 2 1 0 0 0 0 0 0 0 0 0
2 1 2 3 2 1 0 0 0 0 1 1 2 1 0 1 2 3 4 4 5 5 4 3 4 5 6 6 6 6 4 3 1 0 0 0 0 0 0 0 0 0 0
2 2 3 3 2 1 0 0 0 0 1 1 2 2 2 3 4 4 4 4 5 4 2 1 2 3 4 3 2 2 2 2 1 0 0 0 0 0 0 0 0 0 0
4 4 4 4 3 2 1 1 1 1 2 2 3 3 3 4 5 5 5 5 5 4 1 0 1 1 1 1 0 0 1 1 0 0 0 0 0 0 0 0 0 0 0
6 5 4 4 3 2 3 3 3 3 3 3 2 2 3 4 4 4 4 4 5 4 1 0 0 0 0 0 0 0 0 0 0 0 0 0 0 0 0 0 0 0 0
6 4 2 1 1 2 4 5 5 4 4 3 2 2 3 3 3 3 2 2 3 3 2 1 0 0 0 0 0 0 0 0 0 0 0 0 0 0 0 0 0 0 0
4 3 1 0 0 2 4 5 5 5 5 4 2 2 3 3 3 2 1 1 3 3 3 1 1 0 0 0 0 0 0 0 0 0 0 0 0 0 0 0 0 0 0
3 3 2 1 1 2 3 4 4 3 3 3 1 1 2 3 2 1 1 2 3 3 3 3 2 1 0 0 0 0 0 0 0 0 0 0 0 0 0 0 0 0 0
3 3 3 3 2 3 3 3 2 1 1 1 0 0 2 2 2 1 2 3 3 3 3 3 3 2 0 0 0 0 0 0 0 0 0 0 0 0 0 0 0 0 0
1 2 2 2 2 2 2 1 1 0 0 1 1 1 2 3 3 3 3 3 3 3 3 3 2 1 0 0 0 0 0 0 0 0 0 0 0 0 0 0 0 0 0
0 1 1 1 1 1 1 0 0 0 0 1 2 2 3 3 3 2 2 2 2 2 2 2 1 0 0 0 0 0 0 0 0 0 0 0 0 0 0 0 0 0 0
0 0 0 0 0 0 0 0 0 0 0 0 1 2 2 2 1 1 1 1 1 1 1 1 0 0 0 0 0 0 0 0 0 0 0 0 0 0 0 0 0 0 0
0 0 0 0 0 0 0 0 0 0 0 0 0 1 1 1 0 0 0 0 0 0 0 0 0 0 0 0 0 0 0 0 0 0 0 0 0 0 0 0 0 0 0